📊 Raw Sensor Data
Showing records 45501 to 45525 of 85,054 total
| ID | Distance (ft) | Battery V | Battery A | Int Temp (°F) | Int Humid (%) | Ext Temp (°F) | Solar V | RSSI | SNR | Time Stamp |
|---|---|---|---|---|---|---|---|---|---|---|
| 39566 | 15.2 | 4.02 | 0 | 66 | 41 | 67 | 5.10 | -73 | 8 | 05/03/2025 10:30 AM |
| 39565 | 15.2 | 4.02 | 0 | 65 | 41 | 65 | 5.10 | -75 | 8 | 05/03/2025 10:15 AM |
| 39564 | 15.2 | 4.02 | 0 | 64 | 41 | 64 | 5.10 | -74 | 8 | 05/03/2025 10:00 AM |
| 39563 | -- | 4.14 | 0 | 62 | 41 | 62 | 5.10 | -72 | 7 | 05/03/2025 09:45 AM |
| 39562 | 15.4 | 4.14 | 0 | 61 | 41 | 60 | 5.10 | -73 | 8 | 05/03/2025 09:30 AM |
| 39561 | 15.2 | 4.02 | 0 | 61 | 42 | 60 | 5.10 | -74 | 8 | 05/03/2025 09:15 AM |
| 39560 | 15.2 | 4.02 | 0 | 60 | 41 | 59 | 5.10 | -73 | 8 | 05/03/2025 09:00 AM |
| 39559 | 15.2 | 4.02 | 0 | 60 | 41 | 60 | 5.10 | -70 | 8 | 05/03/2025 08:45 AM |
| 39558 | 15.2 | 4.02 | 0 | 59 | 41 | 59 | 5.10 | -71 | 8 | 05/03/2025 08:30 AM |
| 39557 | 15.2 | 4.14 | 65 | 59 | 41 | 59 | 4.50 | -74 | 7 | 05/03/2025 08:15 AM |
| 39556 | 15.3 | 4.18 | 51 | 59 | 41 | 59 | 4.50 | -75 | 8 | 05/03/2025 08:00 AM |
| 39555 | -- | 4.10 | 62 | 58 | 41 | 57 | 4.50 | -74 | 8 | 05/03/2025 07:45 AM |
| 39554 | -- | 4.10 | 27 | 58 | 40 | 58 | 4.50 | -76 | 8 | 05/03/2025 07:31 AM |
| 39553 | -- | 4.02 | 26 | 57 | 40 | 57 | 4.50 | -76 | 8 | 05/03/2025 07:16 AM |
| 39552 | 15.3 | 4.01 | 33 | 56 | 40 | 62 | 4.50 | -74 | 8 | 05/03/2025 07:00 AM |
| 39551 | 15.2 | 4.04 | 5 | 54 | 41 | 56 | 4.50 | -74 | 8 | 05/03/2025 06:45 AM |
| 39550 | 15.2 | 3.99 | 0 | 52 | 41 | 54 | 4.50 | -76 | 8 | 05/03/2025 06:30 AM |
| 39549 | 15.2 | 3.97 | -10 | 52 | 42 | 53 | 4.20 | -75 | 9 | 05/03/2025 06:15 AM |
| 39548 | -- | 3.92 | -5 | 52 | 42 | 53 | 0.90 | -75 | 8 | 05/03/2025 06:00 AM |
| 39547 | -- | 3.92 | -5 | 52 | 42 | 53 | 0.00 | -75 | 8 | 05/03/2025 05:45 AM |
| 39546 | -- | 3.92 | -5 | 52 | 42 | 53 | 0.10 | -77 | 8 | 05/03/2025 05:30 AM |
| 39545 | -- | 3.93 | -5 | 52 | 42 | 53 | 0.00 | -74 | 8 | 05/03/2025 05:15 AM |
| 39544 | 15.4 | 3.93 | -5 | 52 | 42 | 53 | 0.00 | -77 | 8 | 05/03/2025 05:00 AM |
| 39543 | 15.4 | 3.93 | -5 | 52 | 42 | 53 | 0.00 | -75 | 8 | 05/03/2025 04:45 AM |
| 39542 | 15.4 | 3.99 | -5 | 52 | 42 | 53 | 0.10 | -75 | 8 | 05/03/2025 04:30 AM |